This is the latest recevied weather packets stored in our database for station/object N4AN. If no packets are shown the sender has not sent any weather packets the latest 10 day(s).
| Time | Temp. | Humidity | Pressure | Rain* | Wind** | Luminosity | Snow |
|---|---|---|---|---|---|---|---|
| 1777751963 | 32.78° C | 47% | 1004.7 hPa | 0 mm | - | - | - |
| 1777751663 | 32.22° C | 48% | 1004.7 hPa | 0 mm | - | - | - |
| 1777751363 | 32.22° C | 49% | 1004.8 hPa | 0 mm | - | - | - |
| 1777751063 | 32.22° C | 48% | 1005 hPa | 0 mm | - | - | - |
| 1777750762 | 32.22° C | 47% | 1004.9 hPa | 0 mm | - | - | - |
| 1777750459 | 32.78° C | 51% | 1004.9 hPa | 0 mm | - | - | - |
| 1777750158 | 32.78° C | 51% | 1004.9 hPa | 0 mm | - | - | - |
| 1777749858 | 32.78° C | 51% | 1005.2 hPa | 0 mm | - | - | - |
| 1777749558 | 32.22° C | 52% | 1005 hPa | 0 mm | - | - | - |
| 1777749257 | 32.22° C | 54% | 1005 hPa | 0 mm | - | - | - |
| 1777748957 | 32.22° C | 54% | 1005.4 hPa | 0 mm | - | - | - |
| 1777748657 | 31.67° C | 58% | 1005.2 hPa | 0 mm | - | - | - |
| 1777748354 | 31.11° C | 70% | 1005.4 hPa | 0 mm | - | - | - |
| 1777748053 | 31.11° C | 65% | 1005.4 hPa | 0 mm | - | - | - |
| 1777747753 | 30° C | 66% | 1005.3 hPa | 0 mm | - | - | - |
| 1777747453 | 29.44° C | 76% | 1005.2 hPa | 0 mm | - | - | - |
| 1777747153 | 29.44° C | 75% | 1005.3 hPa | 0 mm | - | - | - |
| 1777746852 | 29.44° C | 76% | 1005.3 hPa | 0 mm | - | - | - |
| 1777746550 | 28.89° C | 79% | 1005.4 hPa | 0 mm | - | - | - |
| 1777746249 | 28.33° C | 79% | 1005.6 hPa | 0 mm | - | - | - |
| 1777745949 | 28.33° C | 79% | 1005.5 hPa | 0 mm | - | - | - |
| 1777745649 | 28.33° C | 79% | 1005.6 hPa | 0 mm | - | - | - |
| 1777745348 | 28.33° C | 78% | 1005.5 hPa | 0 mm | - | - | - |
| 1777745048 | 28.89° C | 78% | 1005.5 hPa | 0 mm | - | - | - |
| 1777744748 | 28.89° C | 78% | 1005.4 hPa | 0 mm | - | - | - |
* Rain latest hour (hover to see other rain measurements)
** Current wind speed in m/s (hover to see current wind gust speed)